CES0319 ZSQD-ZSSS

Flight info

Callsign CES0319
Flight time N/A
Altitude 27600
Route K0863S1070 LAT81D LATUX W108 MATNU W115 PINOT W11 PUD PUD71A
Aircraft B738/M-SDE2E3FGHIRWXY/LB1

Departure

Time 2026-04-22 11:28
Airport Qingdao Jiaodong International Airport (ZSQD)

Arrival

Time N/A
Airport Shanghai Hongqiao International Airport (ZSSS)
Time Latitude Longitude Altitude Speed Heading
2026-04-22 11:06 36.35838 120.08266 48 ft 0 kts 133°
2026-04-22 11:15 36.35846 120.08255 48 ft 2 kts 132°
2026-04-22 11:15 36.35856 120.08241 49 ft 2 kts 133°
2026-04-22 11:16 36.35866 120.08227 48 ft 2 kts 133°
2026-04-22 11:16 36.35876 120.08214 48 ft 2 kts 133°
2026-04-22 11:16 36.35887 120.08200 48 ft 2 kts 146°
2026-04-22 11:16 36.35901 120.08195 48 ft 2 kts 179°
2026-04-22 11:17 36.35916 120.08199 48 ft 2 kts 209°
2026-04-22 11:17 36.35922 120.08205 48 ft 1 kts 226°
2026-04-22 11:17 36.35926 120.08209 48 ft 0 kts 223°
2026-04-22 11:20 36.35923 120.08205 48 ft 1 kts 223°
2026-04-22 11:20 36.35892 120.08165 48 ft 9 kts 234°
2026-04-22 11:20 36.35868 120.08094 46 ft 8 kts 256°
2026-04-22 11:21 36.35849 120.08017 44 ft 9 kts 252°
2026-04-22 11:21 36.35829 120.07938 43 ft 9 kts 253°
2026-04-22 11:21 36.35847 120.07876 42 ft 8 kts 345°
2026-04-22 11:21 36.35902 120.07855 41 ft 8 kts 342°
2026-04-22 11:22 36.35962 120.07832 39 ft 9 kts 342°
2026-04-22 11:22 36.36032 120.07804 37 ft 10 kts 342°
2026-04-22 11:22 36.36103 120.07776 35 ft 10 kts 342°
2026-04-22 11:22 36.36175 120.07748 35 ft 10 kts 342°
2026-04-22 11:23 36.36245 120.07720 33 ft 10 kts 342°
2026-04-22 11:23 36.36316 120.07693 32 ft 10 kts 342°
2026-04-22 11:23 36.36386 120.07666 32 ft 10 kts 342°
2026-04-22 11:23 36.36451 120.07641 31 ft 9 kts 342°
2026-04-22 11:24 36.36508 120.07619 31 ft 8 kts 342°
2026-04-22 11:24 36.36557 120.07599 31 ft 7 kts 342°
2026-04-22 11:24 36.36602 120.07581 31 ft 6 kts 342°
2026-04-22 11:24 36.36644 120.07564 31 ft 7 kts 342°
2026-04-22 11:25 36.36723 120.07534 30 ft 16 kts 342°
2026-04-22 11:25 36.36836 120.07490 30 ft 16 kts 341°
2026-04-22 11:25 36.36941 120.07448 30 ft 15 kts 343°
2026-04-22 11:25 36.37034 120.07411 32 ft 12 kts 341°
2026-04-22 11:26 36.37111 120.07380 32 ft 11 kts 341°
2026-04-22 11:26 36.37159 120.07326 32 ft 8 kts 279°
2026-04-22 11:26 36.37145 120.07259 32 ft 7 kts 247°
2026-04-22 11:26 36.37116 120.07214 31 ft 6 kts 221°
2026-04-22 11:27 36.37087 120.07189 31 ft 4 kts 198°
2026-04-22 11:27 36.37064 120.07188 32 ft 2 kts 171°
2026-04-22 11:27 36.37044 120.07192 32 ft 4 kts 167°
2026-04-22 11:27 36.36947 120.07229 33 ft 34 kts 162°
2026-04-22 11:28 36.36498 120.07404 31 ft 108 kts 163°
2026-04-22 11:28 36.35530 120.07780 134 ft 172 kts 163°
2026-04-22 11:28 36.34359 120.08243 961 ft 186 kts 160°
2026-04-22 11:28 36.33136 120.08772 1900 ft 199 kts 156°
2026-04-22 11:29 36.31780 120.09418 2428 ft 218 kts 156°
2026-04-22 11:29 36.30341 120.10053 3196 ft 224 kts 157°
2026-04-22 11:29 36.28764 120.10659 3676 ft 246 kts 161°
2026-04-22 11:29 36.27129 120.11181 4565 ft 248 kts 161°
2026-04-22 11:30 36.25453 120.11754 5373 ft 253 kts 159°
2026-04-22 11:30 36.23759 120.12389 6191 ft 257 kts 158°
2026-04-22 11:30 36.22049 120.13058 6960 ft 263 kts 157°
2026-04-22 11:30 36.20295 120.13747 7732 ft 267 kts 157°
2026-04-22 11:31 36.18505 120.14445 8438 ft 274 kts 158°
2026-04-22 11:31 36.16682 120.15152 9217 ft 277 kts 160°
2026-04-22 11:31 36.14743 120.15483 9915 ft 289 kts 182°
2026-04-22 11:31 36.12797 120.14839 10648 ft 294 kts 207°
2026-04-22 11:32 36.11103 120.13404 11326 ft 298 kts 224°
2026-04-22 11:32 36.09732 120.11543 12043 ft 297 kts 239°
2026-04-22 11:32 36.08918 120.09259 12803 ft 288 kts 264°
2026-04-22 11:32 36.08851 120.06836 13529 ft 281 kts 282°
2026-04-22 11:33 36.09261 120.04511 14258 ft 276 kts 292°
2026-04-22 11:33 36.10096 120.02428 14901 ft 273 kts 311°
2026-04-22 11:33 36.11485 120.00870 15513 ft 274 kts 328°
2026-04-22 11:33 36.13190 119.99815 16088 ft 278 kts 338°
2026-04-22 11:34 36.15080 119.99229 16686 ft 283 kts 349°
2026-04-22 11:34 36.17041 119.99016 17221 ft 288 kts 353°
2026-04-22 11:34 36.19060 119.98902 17726 ft 293 kts 352°
2026-04-22 11:34 36.21104 119.98784 18237 ft 297 kts 352°
2026-04-22 11:35 36.23178 119.98631 18747 ft 301 kts 351°
2026-04-22 11:35 36.25274 119.98430 19262 ft 304 kts 349°
2026-04-22 11:35 36.27382 119.98149 19772 ft 305 kts 345°
2026-04-22 11:35 36.29445 119.97491 20295 ft 302 kts 332°
2026-04-22 11:36 36.31300 119.96310 20762 ft 300 kts 321°
2026-04-22 11:36 36.32956 119.94763 21189 ft 301 kts 314°
2026-04-22 11:36 36.34478 119.92930 21366 ft 311 kts 304°
2026-04-22 11:36 36.35702 119.90704 21577 ft 318 kts 295°
2026-04-22 11:37 36.36698 119.88226 21857 ft 326 kts 291°
2026-04-22 11:37 36.37643 119.85619 21998 ft 340 kts 290°
2026-04-22 11:37 36.38618 119.82897 22181 ft 352 kts 290°
2026-04-22 11:37 36.39636 119.80093 22313 ft 365 kts 291°
2026-04-22 11:38 36.40715 119.77176 22491 ft 377 kts 291°
2026-04-22 11:38 36.41837 119.74178 22621 ft 389 kts 291°
2026-04-22 11:38 36.44169 119.67944 22939 ft 412 kts 291°
2026-04-22 11:39 36.45377 119.64677 23114 ft 422 kts 291°
2026-04-22 11:39 36.46606 119.61339 23387 ft 430 kts 291°
2026-04-22 11:39 36.47862 119.57929 23919 ft 431 kts 291°
2026-04-22 11:39 36.49096 119.54580 24341 ft 434 kts 290°
2026-04-22 11:40 36.50348 119.51178 24925 ft 433 kts 290°
2026-04-22 11:40 36.51592 119.47807 25592 ft 431 kts 290°
2026-04-22 11:40 36.52843 119.44422 26287 ft 427 kts 290°
2026-04-22 11:40 36.54068 119.41090 26972 ft 424 kts 290°
2026-04-22 11:41 36.55279 119.37793 27513 ft 422 kts 289°
2026-04-22 11:41 36.56487 119.34494 27604 ft 423 kts 289°
2026-04-22 11:41 36.57709 119.31153 27626 ft 417 kts 289°
2026-04-22 11:41 36.58908 119.27876 27617 ft 415 kts 289°
2026-04-22 11:42 36.60099 119.24614 27619 ft 418 kts 289°
2026-04-22 11:42 36.61296 119.21332 27620 ft 417 kts 288°
2026-04-22 11:42 36.62483 119.18056 27617 ft 415 kts 288°
2026-04-22 11:42 36.63551 119.14764 27617 ft 411 kts 285°
2026-04-22 11:43 36.64418 119.11350 27619 ft 411 kts 280°
2026-04-22 11:43 36.65029 119.07931 27618 ft 409 kts 277°
2026-04-22 11:43 36.65478 119.04409 27610 ft 408 kts 275°
2026-04-22 11:43 36.65836 119.00926 27612 ft 407 kts 274°
2026-04-22 11:44 36.66165 118.97433 27607 ft 406 kts 273°
2026-04-22 11:44 36.66495 118.93954 27606 ft 406 kts 274°
2026-04-22 11:44 36.66834 118.90469 27605 ft 407 kts 273°
2026-04-22 11:44 36.67177 118.86982 27604 ft 407 kts 274°
2026-04-22 11:45 36.67517 118.83497 27605 ft 408 kts 273°
2026-04-22 11:45 36.67860 118.79973 27605 ft 408 kts 273°
2026-04-22 11:45 36.68200 118.76492 27606 ft 408 kts 274°
2026-04-22 11:45 36.68543 118.72993 27615 ft 408 kts 274°
2026-04-22 11:46 36.68884 118.69510 27605 ft 408 kts 273°
2026-04-22 11:46 36.69227 118.65984 27602 ft 408 kts 274°
2026-04-22 11:46 36.69565 118.62511 27612 ft 407 kts 274°
2026-04-22 11:46 36.69906 118.58993 27605 ft 409 kts 273°
2026-04-22 11:47 36.70240 118.55492 27609 ft 410 kts 274°
2026-04-22 11:47 36.70572 118.51983 27605 ft 409 kts 274°
2026-04-22 11:47 36.70903 118.48480 27599 ft 408 kts 274°
2026-04-22 11:47 36.71231 118.45011 27596 ft 407 kts 273°
2026-04-22 11:48 36.71565 118.41472 27605 ft 408 kts 274°
2026-04-22 11:48 36.71896 118.37974 27602 ft 409 kts 273°
2026-04-22 11:48 36.72228 118.34460 27608 ft 408 kts 273°
2026-04-22 11:48 36.72559 118.30971 27599 ft 408 kts 273°
2026-04-22 11:49 36.72889 118.27461 27610 ft 410 kts 274°
2026-04-22 11:49 36.73217 118.23948 27601 ft 411 kts 273°
2026-04-22 11:49 36.73551 118.20406 27590 ft 410 kts 274°
2026-04-22 11:49 36.73897 118.16912 27598 ft 409 kts 273°
2026-04-22 11:50 36.74258 118.13373 27603 ft 412 kts 274°
2026-04-22 11:50 36.74622 118.09856 27590 ft 411 kts 274°
2026-04-22 11:50 36.74987 118.06311 27601 ft 410 kts 273°
2026-04-22 11:50 36.75343 118.02801 27598 ft 411 kts 274°
2026-04-22 11:51 36.75700 117.99271 27598 ft 410 kts 273°
2026-04-22 11:51 36.76049 117.95785 27592 ft 411 kts 274°
2026-04-22 11:51 36.76399 117.92236 27584 ft 410 kts 274°
2026-04-22 11:51 36.76741 117.88734 27598 ft 408 kts 274°
2026-04-22 11:52 36.77085 117.85224 27609 ft 412 kts 274°
2026-04-22 11:52 36.77438 117.81657 27595 ft 411 kts 274°
2026-04-22 11:52 36.77788 117.78127 27602 ft 410 kts 274°
2026-04-22 11:52 36.78134 117.74617 27603 ft 411 kts 274°
2026-04-22 11:53 36.78480 117.71076 27601 ft 414 kts 274°
2026-04-22 11:53 36.78827 117.67523 27582 ft 413 kts 273°
2026-04-22 11:53 36.79171 117.63992 27593 ft 411 kts 274°
2026-04-22 11:53 36.79516 117.60455 27595 ft 412 kts 274°
2026-04-22 11:54 36.79861 117.56914 27598 ft 414 kts 273°
2026-04-22 11:54 36.80120 117.54218 27593 ft 416 kts 273°
2026-04-22 11:54 36.80443 117.50658 27588 ft 415 kts 272°
2026-04-22 11:54 36.80578 117.47101 27587 ft 411 kts 266°
2026-04-22 11:55 36.80308 117.43591 27583 ft 410 kts 258°
2026-04-22 11:55 36.79573 117.40139 27590 ft 409 kts 251°
2026-04-22 11:55 36.78511 117.36861 27574 ft 407 kts 246°
2026-04-22 11:55 36.77214 117.33733 27580 ft 409 kts 239°
2026-04-22 11:56 36.75548 117.30863 27581 ft 410 kts 231°
2026-04-22 11:56 36.73511 117.28361 27592 ft 415 kts 223°
2026-04-22 11:56 36.71227 117.26176 27588 ft 414 kts 218°
2026-04-22 11:56 36.68793 117.24260 27578 ft 420 kts 213°
2026-04-22 11:57 36.66099 117.22791 27577 ft 427 kts 204°
2026-04-22 11:57 36.63212 117.21909 27602 ft 432 kts 195°
2026-04-22 11:57 36.60163 117.21513 27602 ft 438 kts 190°
2026-04-22 11:57 36.57113 117.21356 27597 ft 441 kts 188°
2026-04-22 11:58 36.54045 117.21300 27608 ft 440 kts 187°
2026-04-22 11:58 36.50992 117.21288 27613 ft 441 kts 187°
2026-04-22 11:58 36.47923 117.21285 27602 ft 441 kts 187°
2026-04-22 11:58 36.44839 117.21372 27600 ft 447 kts 184°
2026-04-22 11:59 36.41740 117.21782 27585 ft 453 kts 178°
2026-04-22 11:59 36.38640 117.22530 27605 ft 458 kts 174°
2026-04-22 11:59 36.35544 117.23505 27601 ft 459 kts 172°
2026-04-22 11:59 36.32477 117.24599 27606 ft 459 kts 171°
2026-04-22 12:00 36.29377 117.25761 27621 ft 464 kts 171°
2026-04-22 12:00 36.26296 117.26930 27620 ft 465 kts 171°
2026-04-22 12:00 36.23225 117.28100 27609 ft 462 kts 170°
2026-04-22 12:00 36.20163 117.29263 27611 ft 462 kts 170°
2026-04-22 12:01 36.17047 117.30436 27612 ft 467 kts 171°
2026-04-22 12:01 36.13954 117.31593 27619 ft 469 kts 171°
2026-04-22 12:01 36.10834 117.32756 27619 ft 471 kts 172°
2026-04-22 12:01 36.07672 117.33928 27625 ft 472 kts 172°
2026-04-22 12:02 36.04550 117.35085 27619 ft 470 kts 172°
2026-04-22 12:02 36.01420 117.36241 27620 ft 473 kts 171°
2026-04-22 12:02 35.98234 117.37421 27623 ft 469 kts 171°
2026-04-22 12:02 35.95130 117.38582 27624 ft 466 kts 171°
2026-04-22 12:03 35.92038 117.39747 27621 ft 465 kts 171°
2026-04-22 12:03 35.88938 117.40910 27624 ft 469 kts 171°
2026-04-22 12:03 35.85809 117.42084 27624 ft 469 kts 171°
2026-04-22 12:03 35.82688 117.43249 27625 ft 472 kts 171°
2026-04-22 12:04 35.79522 117.44430 27628 ft 472 kts 171°
2026-04-22 12:04 35.76398 117.45596 27622 ft 470 kts 171°
2026-04-22 12:04 35.73279 117.46761 27626 ft 471 kts 171°
2026-04-22 12:04 35.70118 117.47940 27625 ft 470 kts 171°
2026-04-22 12:05 35.67006 117.49102 27627 ft 471 kts 171°
2026-04-22 12:05 35.63875 117.50265 27622 ft 473 kts 171°
2026-04-22 12:05 35.60728 117.51430 27623 ft 472 kts 171°
2026-04-22 12:05 35.57565 117.52605 27618 ft 469 kts 170°
2026-04-22 12:06 35.54447 117.53764 27628 ft 470 kts 171°
2026-04-22 12:06 35.51331 117.54929 27624 ft 469 kts 170°
2026-04-22 12:06 35.48217 117.56088 27622 ft 470 kts 170°
2026-04-22 12:06 35.45094 117.57245 27626 ft 473 kts 170°
2026-04-22 12:07 35.41917 117.58421 27619 ft 472 kts 170°
2026-04-22 12:07 35.38797 117.59576 27613 ft 467 kts 170°
2026-04-22 12:07 35.35704 117.60717 27607 ft 468 kts 170°
2026-04-22 12:07 35.32549 117.61876 27605 ft 472 kts 169°
2026-04-22 12:08 35.29427 117.63021 27601 ft 474 kts 169°
2026-04-22 12:08 35.26262 117.64182 27601 ft 472 kts 169°
2026-04-22 12:08 35.23122 117.65337 27601 ft 470 kts 170°
2026-04-22 12:08 35.19975 117.66493 27596 ft 469 kts 170°
2026-04-22 12:09 35.16887 117.67628 27600 ft 467 kts 170°
2026-04-22 12:09 35.13781 117.68772 27600 ft 468 kts 170°
2026-04-22 12:09 35.10625 117.69926 27602 ft 471 kts 169°
2026-04-22 12:09 35.07525 117.71060 27598 ft 471 kts 170°
2026-04-22 12:10 35.04373 117.72208 27601 ft 469 kts 170°
2026-04-22 12:10 35.01242 117.73353 27602 ft 469 kts 169°
2026-04-22 12:10 34.98108 117.74502 27602 ft 471 kts 169°
2026-04-22 12:10 34.94982 117.75651 27597 ft 469 kts 169°
2026-04-22 12:11 34.91855 117.76798 27598 ft 469 kts 169°
2026-04-22 12:11 34.88742 117.77934 27605 ft 469 kts 169°
2026-04-22 12:11 34.85604 117.79076 27600 ft 470 kts 169°
2026-04-22 12:11 34.82469 117.80220 27603 ft 469 kts 169°
2026-04-22 12:12 34.79346 117.81362 27603 ft 470 kts 169°
2026-04-22 12:12 34.76197 117.82508 27599 ft 467 kts 169°
2026-04-22 12:12 34.73082 117.83634 27601 ft 467 kts 169°
2026-04-22 12:12 34.69971 117.84750 27603 ft 470 kts 170°
2026-04-22 12:13 34.66830 117.85870 27603 ft 469 kts 169°
2026-04-22 12:13 34.63713 117.86987 27603 ft 467 kts 169°
2026-04-22 12:13 34.60632 117.88094 27606 ft 466 kts 169°
2026-04-22 12:13 34.57507 117.89217 27603 ft 466 kts 169°
2026-04-22 12:14 34.54406 117.90328 27603 ft 466 kts 169°
2026-04-22 12:14 34.51276 117.91450 27607 ft 468 kts 169°
2026-04-22 12:14 34.48166 117.92561 27604 ft 466 kts 169°
2026-04-22 12:14 34.45051 117.93675 27603 ft 465 kts 169°
2026-04-22 12:15 34.41936 117.94785 27602 ft 466 kts 169°
2026-04-22 12:15 34.38847 117.95886 27612 ft 468 kts 169°
2026-04-22 12:15 34.35720 117.97002 27608 ft 467 kts 169°
2026-04-22 12:15 34.32608 117.98112 27602 ft 463 kts 169°
2026-04-22 12:16 34.29544 117.99206 27605 ft 464 kts 169°
2026-04-22 12:16 34.26435 118.00316 27599 ft 463 kts 169°
2026-04-22 12:16 34.23358 118.01421 27600 ft 466 kts 169°
2026-04-22 12:16 34.20256 118.02548 27604 ft 466 kts 169°
2026-04-22 12:17 34.17149 118.03683 27603 ft 464 kts 169°
2026-04-22 12:17 34.14040 118.04823 27605 ft 463 kts 169°
2026-04-22 12:17 34.10983 118.05944 27603 ft 465 kts 169°
2026-04-22 12:17 34.07896 118.07075 27600 ft 462 kts 168°
2026-04-22 12:18 34.04830 118.08193 27606 ft 461 kts 169°
2026-04-22 12:18 34.01747 118.09309 27606 ft 463 kts 169°
2026-04-22 12:18 33.98649 118.10427 27606 ft 463 kts 169°
2026-04-22 12:18 33.95562 118.11543 27602 ft 462 kts 169°
2026-04-22 12:19 33.92487 118.12657 27600 ft 466 kts 169°
2026-04-22 12:19 33.89380 118.13784 27605 ft 465 kts 169°
2026-04-22 12:19 33.86279 118.14920 27604 ft 465 kts 168°
2026-04-22 12:19 33.83233 118.16235 27602 ft 471 kts 163°
2026-04-22 12:20 33.80239 118.17923 27597 ft 474 kts 158°
2026-04-22 12:20 33.77364 118.19937 27599 ft 477 kts 154°
2026-04-22 12:20 33.74567 118.22136 27597 ft 480 kts 151°
2026-04-22 12:20 33.71843 118.24407 27596 ft 484 kts 150°
2026-04-22 12:21 33.69100 118.26759 27604 ft 484 kts 150°
2026-04-22 12:21 33.66377 118.29117 27600 ft 484 kts 149°
2026-04-22 12:21 33.63655 118.31471 27596 ft 484 kts 150°
2026-04-22 12:21 33.60891 118.33847 27596 ft 485 kts 150°
2026-04-22 12:22 33.58156 118.36181 27598 ft 483 kts 150°
2026-04-22 12:22 33.55415 118.38508 27596 ft 484 kts 150°
2026-04-22 12:22 33.52684 118.40810 27596 ft 486 kts 150°
2026-04-22 12:22 33.49907 118.43140 27596 ft 485 kts 150°
2026-04-22 12:23 33.47135 118.45465 27595 ft 486 kts 150°
2026-04-22 12:23 33.44393 118.47761 27595 ft 485 kts 150°
2026-04-22 12:23 33.41621 118.50080 27595 ft 486 kts 150°
2026-04-22 12:23 33.38843 118.52404 27593 ft 488 kts 150°
2026-04-22 12:24 33.36081 118.54713 27590 ft 487 kts 150°
2026-04-22 12:24 33.33300 118.57041 27591 ft 487 kts 150°
2026-04-22 12:24 33.30546 118.59343 27594 ft 486 kts 150°
2026-04-22 12:24 33.27752 118.61674 27590 ft 486 kts 150°
2026-04-22 12:25 33.25011 118.63959 27590 ft 485 kts 150°
2026-04-22 12:25 33.22222 118.66280 27589 ft 487 kts 150°
2026-04-22 12:25 33.19419 118.68608 27588 ft 489 kts 151°
2026-04-22 12:25 33.16660 118.70900 27591 ft 487 kts 151°
2026-04-22 12:26 33.13870 118.73217 27587 ft 488 kts 151°
2026-04-22 12:26 33.11100 118.75515 27589 ft 489 kts 151°
2026-04-22 12:26 33.08290 118.77845 27587 ft 490 kts 150°
2026-04-22 12:26 33.05508 118.80150 27585 ft 491 kts 150°
2026-04-22 12:27 33.02699 118.82477 27586 ft 490 kts 151°
2026-04-22 12:27 32.99894 118.84798 27587 ft 490 kts 151°
2026-04-22 12:27 32.97110 118.87099 27584 ft 489 kts 151°
2026-04-22 12:27 32.94306 118.89416 27586 ft 490 kts 151°
2026-04-22 12:28 32.91492 118.91740 27584 ft 490 kts 151°
2026-04-22 12:28 32.88687 118.94056 27583 ft 490 kts 150°
2026-04-22 12:28 32.85887 118.96365 27580 ft 487 kts 151°
2026-04-22 12:28 32.83107 118.98654 27579 ft 489 kts 151°
2026-04-22 12:29 32.80294 119.00965 27577 ft 489 kts 151°
2026-04-22 12:29 32.77507 119.03253 27576 ft 489 kts 150°
2026-04-22 12:29 32.74701 119.05558 27573 ft 490 kts 151°
2026-04-22 12:29 32.71889 119.07865 27571 ft 491 kts 150°
2026-04-22 12:30 32.66280 119.12461 27566 ft 490 kts 151°
2026-04-22 12:30 32.63506 119.14732 27565 ft 488 kts 151°
2026-04-22 12:30 32.60692 119.17034 27567 ft 490 kts 150°
2026-04-22 12:31 32.57877 119.19334 27560 ft 490 kts 150°
2026-04-22 12:31 32.55097 119.21605 27562 ft 489 kts 150°
2026-04-22 12:31 32.52286 119.23899 27559 ft 488 kts 150°
2026-04-22 12:31 32.49474 119.26194 27560 ft 488 kts 151°
2026-04-22 12:32 32.46705 119.28451 27542 ft 490 kts 151°
2026-04-22 12:32 32.41044 119.33061 26776 ft 492 kts 150°
2026-04-22 12:32 32.38265 119.35324 26270 ft 488 kts 151°
2026-04-22 12:33 32.35466 119.37604 25763 ft 486 kts 150°
2026-04-22 12:33 32.32671 119.39876 25255 ft 488 kts 150°
2026-04-22 12:33 32.29886 119.42133 24757 ft 489 kts 150°
2026-04-22 12:33 32.27091 119.44401 24249 ft 484 kts 150°
2026-04-22 12:34 32.24361 119.46616 23770 ft 479 kts 150°
2026-04-22 12:34 32.21624 119.48836 23300 ft 475 kts 151°
2026-04-22 12:34 32.18897 119.51045 22825 ft 473 kts 151°
2026-04-22 12:34 32.16196 119.53230 22369 ft 468 kts 151°
2026-04-22 12:35 32.13520 119.55393 21916 ft 466 kts 150°
2026-04-22 12:35 32.10853 119.57546 21462 ft 463 kts 150°
2026-04-22 12:35 32.08201 119.59685 20997 ft 460 kts 150°
2026-04-22 12:35 32.05599 119.61783 20544 ft 456 kts 149°
2026-04-22 12:36 32.02983 119.63892 20087 ft 453 kts 149°
2026-04-22 12:36 32.00387 119.65982 19614 ft 449 kts 149°
2026-04-22 12:36 31.97859 119.68064 19157 ft 449 kts 147°
2026-04-22 12:36 31.95399 119.70390 18683 ft 448 kts 141°
2026-04-22 12:37 31.93226 119.72987 18215 ft 447 kts 134°
2026-04-22 12:37 31.91296 119.75806 17758 ft 444 kts 129°
2026-04-22 12:37 31.89484 119.78782 17286 ft 439 kts 126°
2026-04-22 12:37 31.87801 119.81732 16815 ft 434 kts 125°
2026-04-22 12:38 31.86151 119.84675 16350 ft 430 kts 125°
2026-04-22 12:38 31.84489 119.87594 15876 ft 426 kts 126°
2026-04-22 12:38 31.82859 119.90425 15410 ft 421 kts 126°
2026-04-22 12:38 31.82193 119.91579 15216 ft 419 kts 126°
2026-04-22 12:39 31.80512 119.94491 14740 ft 413 kts 126°
2026-04-22 12:39 31.77329 120.00010 13776 ft 399 kts 126°
2026-04-22 12:39 31.75808 120.02688 13299 ft 391 kts 125°
2026-04-22 12:40 31.74311 120.05298 12823 ft 384 kts 125°
2026-04-22 12:40 31.72818 120.07896 12335 ft 378 kts 125°
2026-04-22 12:40 31.71366 120.10431 11869 ft 372 kts 124°
2026-04-22 12:40 31.69957 120.12876 11728 ft 357 kts 125°
2026-04-22 12:41 31.68586 120.15244 11712 ft 338 kts 125°
2026-04-22 12:41 31.67298 120.17479 11592 ft 325 kts 125°
2026-04-22 12:41 31.66065 120.19624 11462 ft 313 kts 124°
2026-04-22 12:41 31.64868 120.21703 11340 ft 302 kts 124°
2026-04-22 12:42 31.63705 120.23727 11214 ft 297 kts 125°
2026-04-22 12:42 31.62542 120.25734 11098 ft 298 kts 124°
2026-04-22 12:42 31.61371 120.27755 10981 ft 298 kts 125°
2026-04-22 12:42 31.60222 120.29737 10859 ft 298 kts 124°
2026-04-22 12:43 31.59099 120.31779 10734 ft 298 kts 119°
2026-04-22 12:43 31.58243 120.33987 10608 ft 298 kts 110°
2026-04-22 12:43 31.57558 120.36307 10487 ft 300 kts 108°
2026-04-22 12:43 31.56930 120.38593 10366 ft 296 kts 107°
2026-04-22 12:44 31.56281 120.40905 10239 ft 296 kts 108°
2026-04-22 12:44 31.55614 120.43189 10112 ft 296 kts 109°
2026-04-22 12:44 31.54941 120.45464 9994 ft 298 kts 109°
2026-04-22 12:44 31.54268 120.47729 9868 ft 294 kts 109°
2026-04-22 12:45 31.53593 120.49997 9754 ft 297 kts 109°
2026-04-22 12:45 31.52918 120.52262 9630 ft 294 kts 109°
2026-04-22 12:45 31.52246 120.54529 9511 ft 293 kts 108°
2026-04-22 12:45 31.51591 120.56784 9385 ft 292 kts 108°
2026-04-22 12:46 31.50917 120.59007 9261 ft 290 kts 109°
2026-04-22 12:46 31.50231 120.61247 9141 ft 290 kts 109°
2026-04-22 12:46 31.49559 120.63460 9011 ft 288 kts 109°
2026-04-22 12:46 31.48901 120.65667 8919 ft 287 kts 109°
2026-04-22 12:47 31.48239 120.67865 8909 ft 290 kts 109°
2026-04-22 12:47 31.47556 120.70100 8897 ft 288 kts 110°
2026-04-22 12:47 31.46894 120.72298 8896 ft 288 kts 109°
2026-04-22 12:47 31.46229 120.74525 8893 ft 290 kts 109°
2026-04-22 12:48 31.45549 120.76753 8898 ft 291 kts 110°
2026-04-22 12:48 31.44878 120.78966 8900 ft 290 kts 109°
2026-04-22 12:48 31.44201 120.81188 8893 ft 289 kts 110°
2026-04-22 12:48 31.43509 120.83419 8897 ft 291 kts 109°
2026-04-22 12:49 31.42847 120.85655 8889 ft 291 kts 109°
2026-04-22 12:49 31.42192 120.87892 8893 ft 290 kts 109°
2026-04-22 12:49 31.41541 120.90103 8896 ft 290 kts 109°
2026-04-22 12:49 31.40871 120.92324 8838 ft 290 kts 109°
2026-04-22 12:50 31.40187 120.94556 8688 ft 290 kts 109°
2026-04-22 12:50 31.39507 120.96750 8515 ft 288 kts 110°
2026-04-22 12:50 31.38833 120.98947 8335 ft 286 kts 108°
2026-04-22 12:50 31.38171 121.01153 8100 ft 286 kts 109°
2026-04-22 12:51 31.37516 121.03325 7856 ft 281 kts 109°
2026-04-22 12:51 31.36866 121.05447 7597 ft 276 kts 109°
2026-04-22 12:51 31.36219 121.07559 7337 ft 271 kts 108°
2026-04-22 12:51 31.35597 121.09605 7082 ft 266 kts 108°
2026-04-22 12:52 31.34982 121.11623 6833 ft 261 kts 108°
2026-04-22 12:52 31.34370 121.13603 6582 ft 257 kts 108°
2026-04-22 12:52 31.33762 121.15554 6331 ft 253 kts 108°
2026-04-22 12:52 31.33167 121.17463 6077 ft 250 kts 108°
2026-04-22 12:53 31.32546 121.19341 5820 ft 247 kts 113°
2026-04-22 12:53 31.31587 121.20989 5555 ft 246 kts 138°
2026-04-22 12:53 31.30101 121.21955 5309 ft 244 kts 165°
2026-04-22 12:53 31.28438 121.22253 5074 ft 240 kts 176°
2026-04-22 12:54 31.26777 121.22355 4866 ft 240 kts 177°
2026-04-22 12:54 31.25091 121.22440 4661 ft 240 kts 177°
2026-04-22 12:54 31.23444 121.22527 4463 ft 238 kts 177°
2026-04-22 12:54 31.21766 121.22620 4261 ft 237 kts 177°
2026-04-22 12:55 31.20124 121.22715 4061 ft 237 kts 177°
2026-04-22 12:55 31.18479 121.22806 3861 ft 236 kts 177°
2026-04-22 12:55 31.16819 121.22895 3661 ft 236 kts 177°
2026-04-22 12:55 31.15185 121.22984 3462 ft 235 kts 177°
2026-04-22 12:56 31.13553 121.23073 3261 ft 235 kts 177°
2026-04-22 12:56 31.11923 121.23161 3065 ft 236 kts 176°
2026-04-22 12:56 31.10295 121.23251 2866 ft 234 kts 176°
2026-04-22 12:56 31.08656 121.23344 2666 ft 233 kts 176°
2026-04-22 12:57 31.07020 121.23432 2468 ft 234 kts 176°
2026-04-22 12:57 31.05412 121.23519 2273 ft 232 kts 176°
2026-04-22 12:57 31.03829 121.23677 2106 ft 223 kts 169°
2026-04-22 12:57 31.02415 121.24323 1911 ft 216 kts 137°
2026-04-22 12:58 31.01587 121.25697 1880 ft 200 kts 105°
2026-04-22 12:58 31.01340 121.27204 1879 ft 184 kts 89°
2026-04-22 12:58 31.01348 121.28682 1890 ft 183 kts 81°
2026-04-22 12:58 31.01430 121.30141 1885 ft 181 kts 82°
2026-04-22 12:59 31.01504 121.31627 1883 ft 181 kts 81°
2026-04-22 12:59 31.01769 121.33033 1876 ft 175 kts 58°